Time,TemperatureF,DewpointF,PressureIn,WindDirection,WindDirectionDegrees,WindSpeedMPH,WindSpeedGustMPH,Humidity,HourlyPrecipIn,Conditions,Clouds,dailyrainin,SoftwareType,DateUTC
2013-02-19 00:00:00,28.3,16.2,30.17,SW,221,0.0,5.0,60,0.00,,CLR,0.00,VWS V14.01,2013-02-19 05:00:00,
2013-02-19 00:01:00,28.3,16.2,30.17,SW,221,0.0,5.0,60,0.00,,CLR,0.00,VWS V14.01,2013-02-19 05:01:00,
2013-02-19 00:13:00,28.5,17.5,30.17,WSW,246,1.0,4.0,63,0.00,,CLR,0.00,VWS V14.01,2013-02-19 05:13:00,
2013-02-19 00:18:00,28.5,18.2,30.17,SW,225,1.0,5.0,65,0.00,,CLR,0.00,VWS V14.01,2013-02-19 05:18:00,
2013-02-19 00:23:00,28.7,19.5,30.17,WSW,237,3.0,7.0,68,0.00,,CLR,0.00,VWS V14.01,2013-02-19 05:23:00,
2013-02-19 00:28:00,28.9,19.7,30.17,SW,236,1.0,7.0,68,0.00,,CLR,0.00,VWS V14.01,2013-02-19 05:28:00,
2013-02-19 00:31:00,29.0,20.1,30.17,WSW,250,1.0,7.0,69,0.00,,CLR,0.00,VWS V14.01,2013-02-19 05:31:00,
2013-02-19 00:38:00,29.6,21.4,30.17,SW,228,4.0,9.0,71,0.00,,CLR,0.00,VWS V14.01,2013-02-19 05:38:00,
2013-02-19 00:43:00,30.1,21.5,30.17,West,259,5.0,10.0,70,0.00,,CLR,0.00,VWS V14.01,2013-02-19 05:43:00,
2013-02-19 00:48:00,30.7,22.1,30.17,West,263,1.0,10.0,70,0.00,,CLR,0.00,VWS V14.01,2013-02-19 05:48:00,
2013-02-19 00:53:00,31.0,22.4,30.17,WSW,242,5.0,10.0,70,0.00,,CLR,0.00,VWS V14.01,2013-02-19 05:53:00,
2013-02-19 00:58:00,31.2,22.6,30.17,WSW,237,2.0,10.0,70,0.00,,CLR,0.00,VWS V14.01,2013-02-19 05:58:00,
2013-02-19 01:03:00,31.4,22.4,30.17,SW,229,4.0,5.0,69,0.00,,CLR,0.00,VWS V14.01,2013-02-19 06:03:00,
2013-02-19 01:08:00,31.5,22.5,30.16,WSW,238,0.0,5.0,69,0.00,,CLR,0.00,VWS V14.01,2013-02-19 06:08:00,
2013-02-19 01:13:00,31.6,22.3,30.17,WSW,258,1.0,5.0,68,0.00,,CLR,0.00,VWS V14.01,2013-02-19 06:13:00,
2013-02-19 01:18:00,31.7,22.4,30.16,WSW,245,1.0,5.0,68,0.00,,CLR,0.00,VWS V14.01,2013-02-19 06:18:00,
2013-02-19 01:23:00,31.8,22.8,30.16,SW,236,4.0,5.0,69,0.00,,CLR,0.00,VWS V14.01,2013-02-19 06:23:00,
2013-02-19 01:28:00,31.9,22.9,30.16,SW,233,0.0,5.0,69,0.00,,CLR,0.00,VWS V14.01,2013-02-19 06:28:00,
2013-02-19 01:33:00,31.9,22.9,30.16,WSW,238,1.0,2.0,69,0.00,,CLR,0.00,VWS V14.01,2013-02-19 06:33:00,
2013-02-19 01:38:00,31.9,22.9,30.16,WSW,257,0.0,4.0,69,0.00,,CLR,0.00,VWS V14.01,2013-02-19 06:38:00,
2013-02-19 01:43:00,31.7,22.7,30.16,WSW,245,2.0,4.0,69,0.00,,CLR,0.00,VWS V14.01,2013-02-19 06:43:00,
2013-02-19 01:49:00,31.6,22.6,30.16,WSW,245,0.0,4.0,69,0.00,,CLR,0.00,VWS V14.01,2013-02-19 06:49:00,
2013-02-19 01:54:00,31.4,22.4,30.15,WSW,245,0.0,4.0,69,0.00,,CLR,0.00,VWS V14.01,2013-02-19 06:54:00,
2013-02-19 01:59:00,31.1,22.1,30.15,WSW,245,0.0,4.0,69,0.00,,CLR,0.00,VWS V14.01,2013-02-19 06:59:00,
2013-02-19 02:04:00,30.9,21.9,30.14,WSW,245,0.0,0.0,69,0.00,,CLR,0.00,VWS V14.01,2013-02-19 07:04:00,
2013-02-19 02:09:00,30.5,21.9,30.14,WSW,245,0.0,1.0,70,0.00,,CLR,0.00,VWS V14.01,2013-02-19 07:09:00,
2013-02-19 02:14:00,30.2,21.6,30.13,WSW,245,2.0,2.0,70,0.00,,CLR,0.00,VWS V14.01,2013-02-19 07:14:00,
2013-02-19 02:19:00,30.0,21.4,30.13,WSW,245,1.0,2.0,70,0.00,,CLR,0.00,VWS V14.01,2013-02-19 07:19:00,
2013-02-19 02:24:00,29.8,21.2,30.13,WSW,245,0.0,2.0,70,0.00,,CLR,0.00,VWS V14.01,2013-02-19 07:24:00,
2013-02-19 02:29:00,29.6,21.0,30.12,WSW,245,0.0,2.0,70,0.00,,CLR,0.00,VWS V14.01,2013-02-19 07:29:00,
2013-02-19 02:34:00,29.4,20.8,30.13,WSW,245,0.0,0.0,70,0.00,,CLR,0.00,VWS V14.01,2013-02-19 07:34:00,
2013-02-19 02:39:00,29.2,21.0,30.13,WSW,245,0.0,1.0,71,0.00,,CLR,0.00,VWS V14.01,2013-02-19 07:39:00,
2013-02-19 02:44:00,29.0,20.8,30.13,WSW,245,0.0,1.0,71,0.00,,CLR,0.00,VWS V14.01,2013-02-19 07:44:00,
2013-02-19 02:49:00,28.7,20.8,30.13,WSW,245,0.0,1.0,72,0.00,,CLR,0.00,VWS V14.01,2013-02-19 07:49:00,
2013-02-19 02:54:00,28.5,20.6,30.13,WSW,245,0.0,1.0,72,0.00,,CLR,0.00,VWS V14.01,2013-02-19 07:54:00,
2013-02-19 02:59:00,28.4,20.5,30.12,WSW,245,0.0,1.0,72,0.00,,CLR,0.00,VWS V14.01,2013-02-19 07:59:00,
2013-02-19 03:04:00,28.1,20.6,30.13,WSW,245,0.0,0.0,73,0.00,,CLR,0.00,VWS V14.01,2013-02-19 08:04:00,
2013-02-19 03:09:00,27.9,20.7,30.12,WSW,245,0.0,1.0,74,0.00,,CLR,0.00,VWS V14.01,2013-02-19 08:09:00,
2013-02-19 03:14:00,27.8,20.9,30.12,WSW,245,2.0,2.0,75,0.00,,CLR,0.00,VWS V14.01,2013-02-19 08:14:00,
2013-02-19 03:19:00,27.6,20.7,30.12,WSW,245,2.0,3.0,75,0.00,,CLR,0.00,VWS V14.01,2013-02-19 08:19:00,
2013-02-19 03:24:00,27.5,20.9,30.12,WSW,244,0.0,4.0,76,0.00,,CLR,0.00,VWS V14.01,2013-02-19 08:24:00,
2013-02-19 03:29:00,27.5,21.2,30.12,SSW,197,2.0,4.0,77,0.00,,CLR,0.00,VWS V14.01,2013-02-19 08:29:00,
2013-02-19 03:34:00,27.4,21.1,30.11,SSW,197,0.0,2.0,77,0.00,,CLR,0.00,VWS V14.01,2013-02-19 08:34:00,
2013-02-19 03:39:00,27.4,21.5,30.11,SW,227,0.0,4.0,78,0.00,,CLR,0.00,VWS V14.01,2013-02-19 08:39:00,
2013-02-19 03:44:00,27.4,21.8,30.11,SW,227,0.0,4.0,79,0.00,,CLR,0.00,VWS V14.01,2013-02-19 08:44:00,
2013-02-19 03:49:00,27.4,21.8,30.11,SW,224,2.0,4.0,79,0.00,,CLR,0.00,VWS V14.01,2013-02-19 08:49:00,
2013-02-19 03:54:00,27.5,21.9,30.11,SW,224,1.0,4.0,79,0.00,,CLR,0.00,VWS V14.01,2013-02-19 08:54:00,
2013-02-19 03:59:00,27.5,21.9,30.11,SW,224,0.0,4.0,79,0.00,,CLR,0.00,VWS V14.01,2013-02-19 08:59:00,
2013-02-19 04:04:00,27.5,21.9,30.11,SW,224,0.0,1.0,79,0.00,,CLR,0.00,VWS V14.01,2013-02-19 09:04:00,
2013-02-19 04:09:00,27.4,21.8,30.11,SW,224,1.0,1.0,79,0.00,,CLR,0.00,VWS V14.01,2013-02-19 09:09:00,
2013-02-19 04:14:00,27.3,21.7,30.11,SW,224,0.0,1.0,79,0.00,,CLR,0.00,VWS V14.01,2013-02-19 09:14:00,
2013-02-19 04:19:00,27.3,21.7,30.11,SW,225,0.0,2.0,79,0.00,,CLR,0.00,VWS V14.01,2013-02-19 09:19:00,
2013-02-19 04:24:00,27.2,21.6,30.11,SW,229,1.0,2.0,79,0.00,,CLR,0.00,VWS V14.01,2013-02-19 09:24:00,
2013-02-19 04:29:00,27.2,21.6,30.11,SW,229,0.0,2.0,79,0.00,,CLR,0.00,VWS V14.01,2013-02-19 09:29:00,
2013-02-19 04:34:00,27.1,21.5,30.11,SW,229,1.0,3.0,79,0.00,,CLR,0.00,VWS V14.01,2013-02-19 09:34:00,
2013-02-19 04:39:00,26.9,21.3,30.11,SW,229,0.0,3.0,79,0.00,,CLR,0.00,VWS V14.01,2013-02-19 09:39:00,
2013-02-19 04:44:00,26.9,21.6,30.11,SW,229,0.0,3.0,80,0.00,,CLR,0.00,VWS V14.01,2013-02-19 09:44:00,
2013-02-19 04:49:00,26.8,21.2,30.11,SW,229,1.0,3.0,79,0.00,,CLR,0.00,VWS V14.01,2013-02-19 09:49:00,
2013-02-19 04:54:00,26.7,21.4,30.11,SW,229,0.0,3.0,80,0.00,,CLR,0.00,VWS V14.01,2013-02-19 09:54:00,
2013-02-19 04:59:00,26.7,21.4,30.11,SW,229,0.0,3.0,80,0.00,,CLR,0.00,VWS V14.01,2013-02-19 09:59:00,
2013-02-19 05:04:00,26.6,21.3,30.11,SW,229,0.0,0.0,80,0.00,,CLR,0.00,VWS V14.01,2013-02-19 10:04:00,
2013-02-19 05:09:00,26.5,21.2,30.11,SW,229,0.0,1.0,80,0.00,,CLR,0.00,VWS V14.01,2013-02-19 10:09:00,
2013-02-19 05:14:00,26.4,21.1,30.11,SW,229,0.0,1.0,80,0.00,,CLR,0.00,VWS V14.01,2013-02-19 10:14:00,
2013-02-19 05:19:00,26.3,21.0,30.11,SW,229,0.0,1.0,80,0.00,,CLR,0.00,VWS V14.01,2013-02-19 10:19:00,
2013-02-19 05:24:00,26.3,21.0,30.11,SW,229,0.0,1.0,80,0.00,,CLR,0.00,VWS V14.01,2013-02-19 10:24:00,
2013-02-19 05:29:00,26.2,21.2,30.10,SW,229,0.0,1.0,81,0.00,,CLR,0.00,VWS V14.01,2013-02-19 10:29:00,
2013-02-19 05:34:00,26.1,21.1,30.10,SW,229,0.0,0.0,81,0.00,,CLR,0.00,VWS V14.01,2013-02-19 10:34:00,
2013-02-19 05:39:00,26.1,21.1,30.10,SW,229,0.0,0.0,81,0.00,,CLR,0.00,VWS V14.01,2013-02-19 10:39:00,
2013-02-19 05:44:00,26.1,21.1,30.09,SW,229,0.0,0.0,81,0.00,,CLR,0.00,VWS V14.01,2013-02-19 10:44:00,
2013-02-19 05:49:00,26.0,21.0,30.09,SW,229,0.0,1.0,81,0.00,,CLR,0.00,VWS V14.01,2013-02-19 10:49:00,
2013-02-19 05:54:00,25.9,20.9,30.09,SW,229,0.0,1.0,81,0.00,,CLR,0.00,VWS V14.01,2013-02-19 10:54:00,
2013-02-19 05:59:00,25.8,20.8,30.09,SW,229,0.0,1.0,81,0.00,,CLR,0.00,VWS V14.01,2013-02-19 10:59:00,
2013-02-19 06:04:00,25.8,21.1,30.09,SW,229,0.0,0.0,82,0.00,,CLR,0.00,VWS V14.01,2013-02-19 11:04:00,
2013-02-19 06:09:00,25.7,21.0,30.08,SW,229,0.0,0.0,82,0.00,,CLR,0.00,VWS V14.01,2013-02-19 11:09:00,
2013-02-19 06:14:00,25.7,21.0,30.09,SW,229,0.0,0.0,82,0.00,,CLR,0.00,VWS V14.01,2013-02-19 11:14:00,
2013-02-19 06:19:00,25.6,20.9,30.08,SW,229,0.0,0.0,82,0.00,,CLR,0.00,VWS V14.01,2013-02-19 11:19:00,
2013-02-19 06:24:00,25.6,21.2,30.08,SW,229,0.0,0.0,83,0.00,,CLR,0.00,VWS V14.01,2013-02-19 11:24:00,
2013-02-19 06:29:00,25.5,21.1,30.08,SW,229,0.0,0.0,83,0.00,,CLR,0.00,VWS V14.01,2013-02-19 11:29:00,
2013-02-19 06:34:00,25.4,21.0,30.08,SW,229,0.0,0.0,83,0.00,,CLR,0.00,VWS V14.01,2013-02-19 11:34:00,
2013-02-19 06:39:00,25.3,20.9,30.08,SW,229,0.0,0.0,83,0.00,,CLR,0.00,VWS V14.01,2013-02-19 11:39:00,
2013-02-19 06:44:00,25.3,20.9,30.08,SW,229,0.0,0.0,83,0.00,,CLR,0.00,VWS V14.01,2013-02-19 11:44:00,
2013-02-19 06:49:00,25.2,20.8,30.07,SW,229,0.0,0.0,83,0.00,,CLR,0.00,VWS V14.01,2013-02-19 11:49:00,
2013-02-19 06:54:00,25.2,20.8,30.07,SW,229,0.0,0.0,83,0.00,,CLR,0.00,VWS V14.01,2013-02-19 11:54:00,
2013-02-19 06:59:00,25.1,20.7,30.07,SW,229,0.0,0.0,83,0.00,,CLR,0.00,VWS V14.01,2013-02-19 11:59:00,
2013-02-19 07:04:00,25.1,21.0,30.07,SW,229,0.0,0.0,84,0.00,,,0.00,VWS V14.01,2013-02-19 12:04:00,
2013-02-19 07:09:00,25.0,20.9,30.07,SW,229,0.0,1.0,84,0.00,,,0.00,VWS V14.01,2013-02-19 12:09:00,
2013-02-19 07:14:00,25.0,20.9,30.07,SW,229,0.0,1.0,84,0.00,,,0.00,VWS V14.01,2013-02-19 12:14:00,
2013-02-19 07:19:00,25.0,20.9,30.07,SW,229,0.0,1.0,84,0.00,,,0.00,VWS V14.01,2013-02-19 12:19:00,
2013-02-19 07:24:00,25.0,20.9,30.07,SW,229,0.0,1.0,84,0.00,,,0.00,VWS V14.01,2013-02-19 12:24:00,
2013-02-19 07:29:00,25.0,20.9,30.07,SW,229,0.0,1.0,84,0.00,,,0.00,VWS V14.01,2013-02-19 12:29:00,
2013-02-19 07:34:00,25.1,21.0,30.07,SW,229,0.0,0.0,84,0.00,,,0.00,VWS V14.01,2013-02-19 12:34:00,
2013-02-19 07:39:00,25.2,21.3,30.07,SW,229,0.0,0.0,85,0.00,,,0.00,VWS V14.01,2013-02-19 12:39:00,
2013-02-19 07:44:00,25.3,21.4,30.07,SW,229,0.0,0.0,85,0.00,,,0.00,VWS V14.01,2013-02-19 12:44:00,
2013-02-19 07:49:00,25.5,21.6,30.07,SW,229,0.0,0.0,85,0.00,,,0.00,VWS V14.01,2013-02-19 12:49:00,
2013-02-19 07:54:00,25.8,22.2,30.07,SW,229,0.0,0.0,86,0.00,,,0.00,VWS V14.01,2013-02-19 12:54:00,
2013-02-19 07:59:00,26.1,22.5,30.06,SW,229,0.0,0.0,86,0.00,,,0.00,VWS V14.01,2013-02-19 12:59:00,
2013-02-19 08:04:00,26.4,22.8,30.06,SW,229,0.0,0.0,86,0.00,,CLR,0.00,VWS V14.01,2013-02-19 13:04:00,
2013-02-19 08:09:00,26.8,23.2,30.06,SW,229,0.0,1.0,86,0.00,,CLR,0.00,VWS V14.01,2013-02-19 13:09:00,
2013-02-19 08:14:00,27.1,23.5,30.06,SW,229,0.0,2.0,86,0.00,,CLR,0.00,VWS V14.01,2013-02-19 13:14:00,
2013-02-19 08:19:00,27.6,24.0,30.06,SW,229,2.0,2.0,86,0.00,,CLR,0.00,VWS V14.01,2013-02-19 13:19:00,
2013-02-19 08:24:00,28.2,24.8,30.06,SSW,213,0.0,3.0,87,0.00,,CLR,0.00,VWS V14.01,2013-02-19 13:24:00,
2013-02-19 08:29:00,29.0,25.6,30.06,SSW,213,0.0,3.0,87,0.00,,CLR,0.00,VWS V14.01,2013-02-19 13:29:00,
2013-02-19 08:34:00,29.7,26.6,30.06,SSW,213,0.0,0.0,88,0.00,,CLR,0.00,VWS V14.01,2013-02-19 13:34:00,
2013-02-19 08:39:00,30.6,27.5,30.06,SSW,213,1.0,2.0,88,0.00,,CLR,0.00,VWS V14.01,2013-02-19 13:39:00,
2013-02-19 08:44:00,31.8,29.2,30.06,SSW,213,0.0,2.0,90,0.00,,CLR,0.00,VWS V14.01,2013-02-19 13:44:00,
2013-02-19 08:50:00,33.1,30.5,30.05,SSW,213,0.0,2.0,90,0.00,,CLR,0.00,VWS V14.01,2013-02-19 13:50:00,
2013-02-19 08:55:00,34.3,31.4,30.06,SSW,213,0.0,2.0,89,0.00,,CLR,0.00,VWS V14.01,2013-02-19 13:55:00,
2013-02-19 09:00:00,35.6,32.7,30.06,SSW,213,1.0,2.0,89,0.00,,CLR,0.00,VWS V14.01,2013-02-19 14:00:00,
2013-02-19 09:05:00,36.8,33.6,30.05,SSW,213,0.0,3.0,88,0.00,,CLR,0.00,VWS V14.01,2013-02-19 14:05:00,
2013-02-19 09:10:00,37.5,34.0,30.05,SSW,213,2.0,3.0,87,0.00,,CLR,0.00,VWS V14.01,2013-02-19 14:10:00,
2013-02-19 09:15:00,38.4,34.6,30.05,South,190,1.0,3.0,86,0.00,,CLR,0.00,VWS V14.01,2013-02-19 14:15:00,
2013-02-19 09:20:00,39.0,34.9,30.05,South,190,2.0,3.0,85,0.00,,CLR,0.00,VWS V14.01,2013-02-19 14:20:00,
2013-02-19 09:25:00,39.8,35.4,30.04,South,188,2.0,3.0,84,0.00,,CLR,0.00,VWS V14.01,2013-02-19 14:25:00,
2013-02-19 09:30:00,40.5,35.5,30.04,South,171,1.0,4.0,82,0.00,,CLR,0.00,VWS V14.01,2013-02-19 14:30:00,
2013-02-19 09:35:00,41.2,36.1,30.04,SSW,200,2.0,5.0,82,0.00,,CLR,0.00,VWS V14.01,2013-02-19 14:35:00,
2013-02-19 09:40:00,41.7,36.0,30.04,SSE,168,2.0,7.0,80,0.00,,CLR,0.00,VWS V14.01,2013-02-19 14:40:00,
2013-02-19 09:45:00,42.1,36.1,30.03,SSE,147,5.0,7.0,79,0.00,,CLR,0.00,VWS V14.01,2013-02-19 14:45:00,
2013-02-19 09:50:00,42.5,36.5,30.03,South,177,1.0,7.0,79,0.00,,CLR,0.00,VWS V14.01,2013-02-19 14:50:00,
2013-02-19 09:55:00,42.8,36.4,30.03,SSW,204,2.0,7.0,78,0.00,,CLR,0.00,VWS V14.01,2013-02-19 14:55:00,
2013-02-19 10:00:00,43.1,36.7,30.03,South,189,0.0,7.0,78,0.00,,CLR,0.00,VWS V14.01,2013-02-19 15:00:00,
2013-02-19 10:05:00,43.5,37.1,30.03,South,170,2.0,4.0,78,0.00,,CLR,0.00,VWS V14.01,2013-02-19 15:05:00,
2013-02-19 10:10:00,43.9,37.5,30.03,SW,229,2.0,5.0,78,0.00,,CLR,0.00,VWS V14.01,2013-02-19 15:10:00,
2013-02-19 10:15:00,44.3,37.6,30.02,SW,225,4.0,5.0,77,0.00,,CLR,0.00,VWS V14.01,2013-02-19 15:15:00,
2013-02-19 10:20:00,44.7,37.6,30.02,South,190,3.0,8.0,76,0.00,,CLR,0.00,VWS V14.01,2013-02-19 15:20:00,
2013-02-19 10:25:00,44.8,37.4,30.03,South,190,5.0,8.0,75,0.00,,CLR,0.00,VWS V14.01,2013-02-19 15:25:00,
2013-02-19 10:30:00,44.8,37.4,30.02,South,175,4.0,9.0,75,0.00,,CLR,0.00,VWS V14.01,2013-02-19 15:30:00,
2013-02-19 10:35:00,45.1,37.3,30.02,South,173,5.0,6.0,74,0.00,,CLR,0.00,VWS V14.01,2013-02-19 15:35:00,
2013-02-19 10:40:00,45.3,37.5,30.02,SSW,213,2.0,6.0,74,0.00,,CLR,0.00,VWS V14.01,2013-02-19 15:40:00,
2013-02-19 10:45:00,45.6,37.8,30.02,South,181,3.0,6.0,74,0.00,,CLR,0.00,VWS V14.01,2013-02-19 15:45:00,
2013-02-19 10:50:00,45.8,37.7,30.02,South,175,5.0,7.0,73,0.00,,CLR,0.00,VWS V14.01,2013-02-19 15:50:00,
2013-02-19 10:55:00,46.0,37.8,30.02,SSE,165,4.0,11.0,73,0.00,,CLR,0.00,VWS V14.01,2013-02-19 15:55:00,
2013-02-19 11:00:00,46.1,37.9,30.01,South,178,1.0,11.0,73,0.00,,CLR,0.00,VWS V14.01,2013-02-19 16:00:00,
2013-02-19 11:05:00,46.1,37.6,30.00,South,175,3.0,7.0,72,0.00,,CLR,0.00,VWS V14.01,2013-02-19 16:05:00,
2013-02-19 11:10:00,45.9,37.8,30.00,SW,214,3.0,7.0,73,0.00,,CLR,0.00,VWS V14.01,2013-02-19 16:10:00,
2013-02-19 11:15:00,45.7,37.5,30.00,South,188,4.0,7.0,73,0.00,,CLR,0.00,VWS V14.01,2013-02-19 16:15:00,
2013-02-19 11:20:00,45.6,37.5,30.00,South,172,1.0,7.0,73,0.00,,CLR,0.00,VWS V14.01,2013-02-19 16:20:00,
2013-02-19 11:25:00,45.5,37.4,30.00,SSE,166,3.0,7.0,73,0.00,,CLR,0.00,VWS V14.01,2013-02-19 16:25:00,
2013-02-19 11:30:00,45.5,37.4,30.00,South,178,3.0,7.0,73,0.00,,CLR,0.00,VWS V14.01,2013-02-19 16:30:00,
2013-02-19 11:35:00,45.6,37.5,30.00,South,175,1.0,6.0,73,0.00,,CLR,0.00,VWS V14.01,2013-02-19 16:35:00,
2013-02-19 11:40:00,45.7,37.5,29.99,SSE,167,3.0,6.0,73,0.00,,CLR,0.00,VWS V14.01,2013-02-19 16:40:00,
2013-02-19 11:45:00,45.8,37.7,29.98,SSE,159,2.0,6.0,73,0.00,,CLR,0.00,VWS V14.01,2013-02-19 16:45:00,
2013-02-19 11:50:00,46.0,37.5,29.97,South,188,0.0,7.0,72,0.00,,CLR,0.00,VWS V14.01,2013-02-19 16:50:00,
2013-02-19 11:55:00,46.2,37.7,29.97,SSE,167,3.0,7.0,72,0.00,,CLR,0.00,VWS V14.01,2013-02-19 16:55:00,
2013-02-19 12:00:00,46.2,37.7,29.97,SSE,167,2.0,7.0,72,0.00,,CLR,0.00,VWS V14.01,2013-02-19 17:00:00,
2013-02-19 12:05:00,46.3,37.4,29.97,South,173,2.0,4.0,71,0.00,,CLR,0.00,VWS V14.01,2013-02-19 17:05:00,
2013-02-19 12:10:00,46.5,37.6,29.96,South,173,1.0,4.0,71,0.00,,CLR,0.00,VWS V14.01,2013-02-19 17:10:00,
2013-02-19 12:15:00,46.6,37.3,29.96,SSE,165,1.0,5.0,70,0.00,,CLR,0.00,VWS V14.01,2013-02-19 17:15:00,
2013-02-19 12:20:00,46.7,37.5,29.96,SSE,165,0.0,5.0,70,0.00,,CLR,0.00,VWS V14.01,2013-02-19 17:20:00,
2013-02-19 12:25:00,46.8,37.5,29.95,SSE,165,1.0,5.0,70,0.00,,CLR,0.00,VWS V14.01,2013-02-19 17:25:00,
2013-02-19 12:30:00,46.8,37.5,29.95,South,183,2.0,5.0,70,0.00,,CLR,0.00,VWS V14.01,2013-02-19 17:30:00,
2013-02-19 12:35:00,46.8,37.2,29.95,South,184,1.0,4.0,69,0.00,,CLR,0.00,VWS V14.01,2013-02-19 17:35:00,
2013-02-19 12:40:00,46.8,37.5,29.94,South,185,0.0,4.0,70,0.00,,CLR,0.00,VWS V14.01,2013-02-19 17:40:00,
2013-02-19 12:45:00,46.9,37.6,29.94,South,185,2.0,4.0,70,0.00,,CLR,0.00,VWS V14.01,2013-02-19 17:45:00,
2013-02-19 12:50:00,46.9,37.6,29.94,South,188,1.0,4.0,70,0.00,,CLR,0.00,VWS V14.01,2013-02-19 17:50:00,
2013-02-19 12:55:00,47.0,37.7,29.93,SSW,211,2.0,4.0,70,0.00,,CLR,0.00,VWS V14.01,2013-02-19 17:55:00,
2013-02-19 13:00:00,47.4,38.5,29.93,South,189,3.0,5.0,71,0.00,,CLR,0.00,VWS V14.01,2013-02-19 18:00:00,
2013-02-19 13:05:00,47.7,38.4,29.93,South,184,3.0,5.0,70,0.00,,CLR,0.00,VWS V14.01,2013-02-19 18:05:00,
2013-02-19 13:10:00,47.7,38.4,29.93,SSW,205,2.0,5.0,70,0.00,,CLR,0.00,VWS V14.01,2013-02-19 18:10:00,
2013-02-19 13:15:00,47.8,38.5,29.92,SSW,205,2.0,5.0,70,0.00,,CLR,0.00,VWS V14.01,2013-02-19 18:15:00,
2013-02-19 13:20:00,48.1,38.8,29.92,SSW,194,1.0,5.0,70,0.00,,BKN047,0.00,VWS V14.01,2013-02-19 18:20:00,
2013-02-19 13:25:00,48.1,38.8,29.91,SW,226,2.0,5.0,70,0.00,,BKN047,0.00,VWS V14.01,2013-02-19 18:25:00,
2013-02-19 13:30:00,48.1,39.2,29.91,SSW,192,0.0,5.0,71,0.00,,BKN047,0.00,VWS V14.01,2013-02-19 18:30:00,
2013-02-19 13:35:00,47.8,38.9,29.90,South,178,1.0,4.0,71,0.00,,BKN047,0.00,VWS V14.01,2013-02-19 18:35:00,
2013-02-19 13:40:00,47.5,38.9,29.90,SW,235,3.0,4.0,72,0.00,,BKN047,0.00,VWS V14.01,2013-02-19 18:40:00,
2013-02-19 13:45:00,47.2,38.7,29.90,SSW,202,0.0,4.0,72,0.00,,BKN047,0.00,VWS V14.01,2013-02-19 18:45:00,
2013-02-19 13:50:00,47.1,38.5,29.89,SSW,202,0.0,4.0,72,0.00,,BKN047,0.00,VWS V14.01,2013-02-19 18:50:00,
2013-02-19 13:55:00,47.1,38.5,29.89,SSW,202,0.0,4.0,72,0.00,,BKN047,0.00,VWS V14.01,2013-02-19 18:55:00,
2013-02-19 14:00:00,47.0,38.5,29.89,SSW,202,0.0,4.0,72,0.00,,BKN047,0.00,VWS V14.01,2013-02-19 19:00:00,
2013-02-19 14:05:00,46.9,38.4,29.88,SSW,202,0.0,3.0,72,0.00,,BKN065,0.00,VWS V14.01,2013-02-19 19:05:00,
2013-02-19 14:10:00,46.7,38.5,29.88,SSE,156,0.0,5.0,73,0.00,,BKN065,0.00,VWS V14.01,2013-02-19 19:10:00,
2013-02-19 14:15:00,46.5,38.7,29.88,South,173,2.0,5.0,74,0.00,,BKN065,0.00,VWS V14.01,2013-02-19 19:15:00,
2013-02-19 14:20:00,46.3,38.8,29.88,South,176,2.0,5.0,75,0.00,,BKN065,0.00,VWS V14.01,2013-02-19 19:20:00,
2013-02-19 14:25:00,46.0,38.9,29.88,South,190,0.0,5.0,76,0.00,,BKN065,0.00,VWS V14.01,2013-02-19 19:25:00,
2013-02-19 14:30:00,45.9,39.1,29.87,SSE,165,1.0,5.0,77,0.00,,BKN065,0.00,VWS V14.01,2013-02-19 19:30:00,
2013-02-19 14:35:00,45.7,38.9,29.87,SSE,161,1.0,6.0,77,0.00,,BKN065,0.00,VWS V14.01,2013-02-19 19:35:00,
2013-02-19 14:40:00,45.5,39.0,29.87,SSE,161,0.0,6.0,78,0.00,,BKN065,0.00,VWS V14.01,2013-02-19 19:40:00,
2013-02-19 14:45:00,45.3,38.9,29.87,SSE,161,0.0,6.0,78,0.00,,BKN065,0.00,VWS V14.01,2013-02-19 19:45:00,
2013-02-19 14:50:00,45.1,39.0,29.86,SSE,161,0.0,6.0,79,0.00,,BKN065,0.00,VWS V14.01,2013-02-19 19:50:00,
2013-02-19 14:55:00,44.9,39.4,29.86,SSE,161,0.0,6.0,81,0.00,,BKN065,0.00,VWS V14.01,2013-02-19 19:55:00,
2013-02-19 15:00:00,44.8,39.7,29.85,South,188,1.0,6.0,82,0.00,,-RA,0.00,VWS V14.01,2013-02-19 20:00:00,
2013-02-19 15:05:00,44.7,40.2,29.85,South,180,1.0,4.0,84,0.00,,-RA,0.00,VWS V14.01,2013-02-19 20:05:00,
2013-02-19 15:10:00,44.6,40.4,29.85,SSE,167,2.0,4.0,85,0.01,,-RA,0.01,VWS V14.01,2013-02-19 20:10:00,
2013-02-19 15:15:00,44.4,40.5,29.84,SSE,160,2.0,5.0,86,0.01,,-RA,0.01,VWS V14.01,2013-02-19 20:15:00,
2013-02-19 15:20:00,44.3,40.7,29.84,SE,142,3.0,5.0,87,0.01,,-RA,0.01,VWS V14.01,2013-02-19 20:20:00,
2013-02-19 15:25:00,44.2,40.6,29.83,SSE,165,2.0,5.0,87,0.02,,-RA,0.02,VWS V14.01,2013-02-19 20:25:00,
2013-02-19 15:30:00,44.1,40.8,29.83,SSE,160,3.0,5.0,88,0.02,,-RA,0.02,VWS V14.01,2013-02-19 20:30:00,
2013-02-19 15:35:00,44.0,40.7,29.82,SSE,161,2.0,6.0,88,0.02,,-RA,0.02,VWS V14.01,2013-02-19 20:35:00,
2013-02-19 15:40:00,43.9,40.9,29.82,SSE,147,6.0,6.0,89,0.02,,-RA,0.02,VWS V14.01,2013-02-19 20:40:00,
2013-02-19 15:45:00,43.8,40.8,29.81,SSE,166,3.0,6.0,89,0.02,,-RA,0.02,VWS V14.01,2013-02-19 20:45:00,
2013-02-19 15:51:00,43.8,40.8,29.81,SSE,167,4.0,6.0,89,0.02,,-RA,0.02,VWS V14.01,2013-02-19 20:51:00,
2013-02-19 15:56:00,43.7,41.0,29.80,South,172,1.0,6.0,90,0.02,,-RA,0.02,VWS V14.01,2013-02-19 20:56:00,
2013-02-19 16:01:00,43.7,41.0,29.80,SSE,153,2.0,6.0,90,0.02,,-RA,0.02,VWS V14.01,2013-02-19 21:01:00,
2013-02-19 16:06:00,43.6,40.9,29.80,SSE,153,4.0,5.0,90,0.02,,-RA,0.02,VWS V14.01,2013-02-19 21:06:00,
2013-02-19 16:11:00,43.5,40.8,29.80,South,173,0.0,5.0,90,0.02,,-RA,0.02,VWS V14.01,2013-02-19 21:11:00,
2013-02-19 16:16:00,43.4,40.7,29.79,South,173,2.0,5.0,90,0.03,,-RA,0.03,VWS V14.01,2013-02-19 21:16:00,
2013-02-19 16:21:00,43.2,40.5,29.79,SSE,160,0.0,5.0,90,0.03,,-RA,0.03,VWS V14.01,2013-02-19 21:21:00,
2013-02-19 16:26:00,43.0,40.3,29.78,SSE,161,1.0,5.0,90,0.03,,-RA,0.03,VWS V14.01,2013-02-19 21:26:00,
2013-02-19 16:31:00,42.9,40.2,29.78,SSE,161,1.0,5.0,90,0.03,,-RA,0.03,VWS V14.01,2013-02-19 21:31:00,
2013-02-19 16:36:00,42.8,40.4,29.78,SSW,197,2.0,3.0,91,0.02,,-RA,0.04,VWS V14.01,2013-02-19 21:36:00,
2013-02-19 16:41:00,42.7,40.3,29.77,SSW,195,0.0,3.0,91,0.03,,-RA,0.05,VWS V14.01,2013-02-19 21:41:00,
2013-02-19 16:46:00,42.6,40.4,29.76,SSW,195,1.0,3.0,92,0.04,,-RA,0.06,VWS V14.01,2013-02-19 21:46:00,
2013-02-19 16:51:00,42.6,40.4,29.76,South,175,3.0,4.0,92,0.05,,-RA,0.07,VWS V14.01,2013-02-19 21:51:00,
2013-02-19 16:56:00,42.6,40.4,29.75,South,173,1.0,4.0,92,0.05,,-RA,0.07,VWS V14.01,2013-02-19 21:56:00,
2013-02-19 17:01:00,42.5,40.3,29.75,South,173,0.0,4.0,92,0.06,,-RA,0.08,VWS V14.01,2013-02-19 22:01:00,
2013-02-19 17:06:00,42.5,40.6,29.75,South,173,0.0,1.0,93,0.06,,-RA,0.08,VWS V14.01,2013-02-19 22:06:00,
2013-02-19 17:11:00,42.5,40.6,29.75,South,173,0.0,1.0,93,0.07,,-RA,0.09,VWS V14.01,2013-02-19 22:11:00,
2013-02-19 17:16:00,42.5,40.6,29.75,South,173,0.0,2.0,93,0.07,,-RA,0.09,VWS V14.01,2013-02-19 22:16:00,
2013-02-19 17:21:00,42.5,40.6,29.74,South,173,0.0,2.0,93,0.08,,-RA,0.10,VWS V14.01,2013-02-19 22:21:00,
2013-02-19 17:26:00,42.5,40.6,29.73,South,173,0.0,2.0,93,0.08,,-RA,0.10,VWS V14.01,2013-02-19 22:26:00,
2013-02-19 17:31:00,42.5,40.6,29.73,South,173,0.0,2.0,93,0.09,,-RA,0.11,VWS V14.01,2013-02-19 22:31:00,
2013-02-19 17:36:00,42.5,40.6,29.73,South,173,0.0,1.0,93,0.08,,-RA,0.11,VWS V14.01,2013-02-19 22:36:00,
2013-02-19 17:41:00,42.4,40.5,29.73,South,173,0.0,1.0,93,0.09,,-RA,0.12,VWS V14.01,2013-02-19 22:41:00,
2013-02-19 17:46:00,42.4,40.5,29.72,South,173,0.0,1.0,93,0.09,,-RA,0.12,VWS V14.01,2013-02-19 22:46:00,
2013-02-19 17:51:00,42.3,40.4,29.72,South,173,0.0,1.0,93,0.09,,-RA,0.12,VWS V14.01,2013-02-19 22:51:00,
2013-02-19 17:56:00,42.2,40.3,29.72,South,173,0.0,1.0,93,0.10,,-RA,0.13,VWS V14.01,2013-02-19 22:56:00,
2013-02-19 18:01:00,42.2,40.6,29.72,SSE,161,2.0,3.0,94,0.10,,RA,0.13,VWS V14.01,2013-02-19 23:01:00,
2013-02-19 18:06:00,42.5,40.9,29.71,SSE,161,2.0,4.0,94,0.06,,RA,0.14,VWS V14.01,2013-02-19 23:06:00,
2013-02-19 18:11:00,42.9,41.6,29.71,SSE,161,2.0,4.0,95,0.06,,RA,0.14,VWS V14.01,2013-02-19 23:11:00,
2013-02-19 18:16:00,43.3,42.0,29.70,SSE,161,1.0,4.0,95,0.06,,RA,0.14,VWS V14.01,2013-02-19 23:16:00,
2013-02-19 18:21:00,43.6,42.3,29.70,ESE,113,2.0,4.0,95,0.06,,RA,0.14,VWS V14.01,2013-02-19 23:21:00,
2013-02-19 18:26:00,43.7,42.4,29.69,ESE,117,2.0,4.0,95,0.07,,RA,0.15,VWS V14.01,2013-02-19 23:26:00,
2013-02-19 18:31:00,43.8,42.5,29.69,SE,139,0.0,4.0,95,0.07,,RA,0.15,VWS V14.01,2013-02-19 23:31:00,
2013-02-19 18:36:00,44.0,42.7,29.69,SSE,155,1.0,6.0,95,0.04,,RA,0.15,VWS V14.01,2013-02-19 23:36:00,
2013-02-19 18:41:00,44.1,43.0,29.69,SSE,153,1.0,7.0,96,0.05,,RA,0.16,VWS V14.01,2013-02-19 23:41:00,
2013-02-19 18:46:00,44.2,43.1,29.69,SSE,159,4.0,7.0,96,0.06,,-RA,0.17,VWS V14.01,2013-02-19 23:46:00,
2013-02-19 18:51:00,44.7,43.6,29.68,SE,144,4.0,9.0,96,0.06,,-RA,0.17,VWS V14.01,2013-02-19 23:51:00,
2013-02-19 18:56:00,45.1,44.0,29.68,SE,144,4.0,9.0,96,0.06,,-RA,0.17,VWS V14.01,2013-02-19 23:56:00,
2013-02-19 19:01:00,45.1,44.0,29.67,SSE,167,2.0,9.0,96,0.07,,-RA,0.18,VWS V14.01,2013-02-20 00:01:00,
2013-02-19 19:06:00,45.1,44.0,29.67,SSE,165,3.0,6.0,96,0.05,,-RA,0.18,VWS V14.01,2013-02-20 00:06:00,
2013-02-19 19:11:00,45.1,44.0,29.66,SSE,167,2.0,6.0,96,0.05,,-RA,0.18,VWS V14.01,2013-02-20 00:11:00,
2013-02-19 19:16:00,45.1,44.0,29.65,SSE,156,1.0,6.0,96,0.05,,-RA,0.18,VWS V14.01,2013-02-20 00:16:00,
2013-02-19 19:21:00,45.1,44.0,29.65,South,176,2.0,6.0,96,0.05,,-RA,0.18,VWS V14.01,2013-02-20 00:21:00,
2013-02-19 19:26:00,45.0,43.9,29.65,SSE,168,3.0,6.0,96,0.05,,-RA,0.18,VWS V14.01,2013-02-20 00:26:00,
2013-02-19 19:31:00,45.0,43.9,29.64,SSE,168,2.0,6.0,96,0.05,,-RA,0.18,VWS V14.01,2013-02-20 00:31:00,
2013-02-19 19:36:00,44.9,43.8,29.64,SSE,150,1.0,4.0,96,0.03,,-RA,0.18,VWS V14.01,2013-02-20 00:36:00,
2013-02-19 19:41:00,44.9,43.8,29.64,West,261,2.0,5.0,96,0.04,,-RA,0.19,VWS V14.01,2013-02-20 00:41:00,
2013-02-19 19:46:00,44.7,43.6,29.64,SSW,211,0.0,5.0,96,0.05,,-RA,0.20,VWS V14.01,2013-02-20 00:46:00,
2013-02-19 19:51:00,44.6,43.5,29.64,SSW,203,1.0,6.0,96,0.06,,-RA,0.21,VWS V14.01,2013-02-20 00:51:00,
2013-02-19 19:56:00,44.5,43.4,29.63,South,190,6.0,6.0,96,0.06,,-RA,0.21,VWS V14.01,2013-02-20 00:56:00,
2013-02-19 20:01:00,44.3,43.2,29.63,South,169,2.0,6.0,96,0.06,,-RA,0.21,VWS V14.01,2013-02-20 01:01:00,
2013-02-19 20:06:00,44.4,43.3,29.62,West,274,7.0,11.0,96,0.04,,-RA,0.22,VWS V14.01,2013-02-20 01:06:00,
2013-02-19 20:11:00,44.7,43.6,29.62,SW,236,4.0,16.0,96,0.04,,-RA,0.22,VWS V14.01,2013-02-20 01:11:00,
2013-02-19 20:16:00,44.9,43.8,29.62,West,273,10.0,16.0,96,0.04,,-RA,0.22,VWS V14.01,2013-02-20 01:16:00,
2013-02-19 20:21:00,44.9,43.8,29.62,SW,217,4.0,16.0,96,0.05,,-RA,0.23,VWS V14.01,2013-02-20 01:21:00,
2013-02-19 20:26:00,44.7,43.6,29.62,WSW,239,0.0,16.0,96,0.05,,-RA,0.23,VWS V14.01,2013-02-20 01:26:00,
2013-02-19 20:31:00,44.6,43.5,29.63,WSW,243,4.0,16.0,96,0.06,,-RA,0.24,VWS V14.01,2013-02-20 01:31:00,
2013-02-19 20:36:00,44.6,43.5,29.62,SSW,201,3.0,13.0,96,0.06,,-RA,0.24,VWS V14.01,2013-02-20 01:36:00,
2013-02-19 20:41:00,44.5,43.4,29.62,WNW,294,1.0,13.0,96,0.06,,-RA,0.24,VWS V14.01,2013-02-20 01:41:00,
2013-02-19 20:46:00,44.5,43.4,29.62,WSW,250,7.0,13.0,96,0.06,,-RA,0.24,VWS V14.01,2013-02-20 01:46:00,
2013-02-19 20:51:00,44.5,43.4,29.61,West,281,3.0,13.0,96,0.07,,-RA,0.25,VWS V14.01,2013-02-20 01:51:00,
2013-02-19 20:56:00,44.5,43.4,29.61,SW,227,0.0,13.0,96,0.07,,-RA,0.25,VWS V14.01,2013-02-20 01:56:00,
2013-02-19 21:01:00,44.5,43.4,29.62,SW,217,2.0,4.0,96,0.04,,-RA,0.25,VWS V14.01,2013-02-20 02:01:00,
2013-02-19 21:06:00,44.4,43.3,29.60,WSW,247,2.0,9.0,96,0.04,,-RA,0.25,VWS V14.01,2013-02-20 02:06:00,
2013-02-19 21:11:00,44.4,43.3,29.61,SSW,208,2.0,12.0,96,0.04,,-RA,0.25,VWS V14.01,2013-02-20 02:11:00,
2013-02-19 21:16:00,44.3,43.2,29.61,SSW,209,9.0,12.0,96,0.04,,-RA,0.25,VWS V14.01,2013-02-20 02:16:00,
2013-02-19 21:21:00,44.2,43.1,29.61,WSW,238,2.0,12.0,96,0.04,,-RA,0.25,VWS V14.01,2013-02-20 02:21:00,
2013-02-19 21:26:00,44.1,43.0,29.60,SSW,213,0.0,12.0,96,0.04,,-RA,0.25,VWS V14.01,2013-02-20 02:26:00,
2013-02-19 21:31:00,44.0,42.9,29.60,SW,215,3.0,3.0,96,0.01,,-RA,0.25,VWS V14.01,2013-02-20 02:31:00,
2013-02-19 21:36:00,43.8,42.7,29.60,WSW,250,3.0,10.0,96,0.01,,-RA,0.25,VWS V14.01,2013-02-20 02:36:00,
2013-02-19 21:41:00,43.7,42.6,29.59,West,265,1.0,10.0,96,0.01,,-RA,0.25,VWS V14.01,2013-02-20 02:41:00,
2013-02-19 21:46:00,43.6,42.5,29.59,WSW,252,3.0,10.0,96,0.01,,-RA,0.25,VWS V14.01,2013-02-20 02:46:00,
2013-02-19 21:51:00,43.4,42.3,29.59,WSW,240,6.0,10.0,96,0.01,,-RA,0.25,VWS V14.01,2013-02-20 02:51:00,
2013-02-19 21:56:00,43.3,42.2,29.59,West,267,0.0,10.0,96,0.01,,-RA,0.25,VWS V14.01,2013-02-20 02:56:00,
2013-02-19 22:01:00,43.3,42.2,29.59,SW,225,3.0,4.0,96,0.00,,OVC019,0.25,VWS V14.01,2013-02-20 03:01:00,
2013-02-19 22:06:00,43.2,42.1,29.59,WSW,238,0.0,5.0,96,0.00,,OVC019,0.25,VWS V14.01,2013-02-20 03:06:00,
2013-02-19 22:11:00,43.1,42.0,29.60,WSW,238,2.0,5.0,96,0.00,,OVC019,0.25,VWS V14.01,2013-02-20 03:11:00,
2013-02-19 22:16:00,42.9,41.8,29.59,WSW,238,1.0,5.0,96,0.00,,OVC110,0.25,VWS V14.01,2013-02-20 03:16:00,
2013-02-19 22:21:00,42.8,41.7,29.59,WSW,246,2.0,5.0,96,0.00,,OVC110,0.25,VWS V14.01,2013-02-20 03:21:00,
2013-02-19 22:26:00,42.6,41.5,29.60,WSW,246,1.0,5.0,96,0.01,,OVC110,0.26,VWS V14.01,2013-02-20 03:26:00,
2013-02-19 22:31:00,42.5,41.4,29.59,West,259,2.0,2.0,96,0.01,,OVC110,0.26,VWS V14.01,2013-02-20 03:31:00,
2013-02-19 22:36:00,42.5,41.4,29.59,WSW,250,0.0,7.0,96,0.01,,OVC110,0.26,VWS V14.01,2013-02-20 03:36:00,
2013-02-19 22:41:00,42.5,41.4,29.59,SW,233,5.0,13.0,96,0.01,,OVC110,0.26,VWS V14.01,2013-02-20 03:41:00,
2013-02-19 22:46:00,42.5,41.4,29.59,SW,218,1.0,13.0,96,0.01,,OVC095,0.26,VWS V14.01,2013-02-20 03:46:00,
2013-02-19 22:51:00,42.6,41.5,29.59,WSW,246,0.0,13.0,96,0.01,,OVC095,0.26,VWS V14.01,2013-02-20 03:51:00,
2013-02-19 22:56:00,42.6,41.5,29.58,WSW,250,0.0,13.0,96,0.01,,OVC095,0.26,VWS V14.01,2013-02-20 03:56:00,
2013-02-19 23:01:00,42.5,41.4,29.59,WSW,250,2.0,2.0,96,0.01,,-RA,0.26,VWS V14.01,2013-02-20 04:01:00,
2013-02-19 23:06:00,42.5,41.4,29.58,WNW,296,1.0,4.0,96,0.01,,-RA,0.26,VWS V14.01,2013-02-20 04:06:00,
2013-02-19 23:11:00,42.3,41.2,29.58,WNW,290,0.0,4.0,96,0.01,,-RA,0.26,VWS V14.01,2013-02-20 04:11:00,
2013-02-19 23:17:00,42.2,41.1,29.58,WNW,295,0.0,4.0,96,0.01,,-RA,0.26,VWS V14.01,2013-02-20 04:17:00,
2013-02-19 23:22:00,42.0,40.9,29.58,West,279,0.0,4.0,96,0.01,,-RA,0.26,VWS V14.01,2013-02-20 04:22:00,
2013-02-19 23:27:00,41.9,40.8,29.58,West,259,3.0,5.0,96,0.01,,-RA,0.26,VWS V14.01,2013-02-20 04:27:00,
2013-02-19 23:32:00,41.5,40.5,29.59,WSW,242,2.0,3.0,96,0.00,,-RA,0.26,VWS V14.01,2013-02-20 04:32:00,
2013-02-19 23:37:00,41.3,40.2,29.59,West,278,2.0,4.0,96,0.00,,-RA,0.26,VWS V14.01,2013-02-20 04:37:00,
2013-02-19 23:42:00,41.2,40.2,29.59,SW,234,0.0,5.0,96,0.00,,-RA,0.26,VWS V14.01,2013-02-20 04:42:00,
2013-02-19 23:47:00,41.1,40.0,29.59,SW,234,1.0,5.0,96,0.00,,-RA,0.26,VWS V14.01,2013-02-20 04:47:00,
2013-02-19 23:52:00,41.0,40.0,29.58,WSW,244,0.0,10.0,96,0.00,,-RA,0.26,VWS V14.01,2013-02-20 04:52:00,
2013-02-19 23:57:00,40.9,39.8,29.58,SW,224,2.0,10.0,96,0.00,,-RA,0.26,VWS V14.01,2013-02-20 04:57:00,